Location: Bidart
(43.4376°N, 1.5913°W)
Time: 04:41:56
(UTC+00:00)

H-2A DEB - Pass Details

Date: 22 April 2026
Orbit: 584 x 592 km, 98.2° (Epoch: 15 May)

Event Time Altitude Azimuth Distance (km) Brightness Sun altitude
Exits shadow 00:58:12 22° 33° (NNE) 1,310 ? -33.1°
Drops below altitude 10° 01:00:16 10° 9° (N) 1,931 ? -33.0°
Sets 01:02:39 0° 358° (N) 2,838 ? -32.9°
